Location: Star Camp Observatory
(34.2910°N, 116.3827°W)
Time: 21:03:55
(UTC-08:00)

Envisat - Pass Details

Date: 23 November 2019
Orbit: 764 x 766 km, 98.1° (Epoch: 07 December)

Event Time Altitude Azimuth Distance (km) Brightness Sun altitude
Rises 05:35:02 0° 29° (NNE) 3,232 6.4 -10.7°
Reaches altitude 10° 05:37:51 10° 44° (NE) 2,301 5.8 -10.1°
Maximum altitude 05:41:44 22° 95° (E) 1,621 5.8 -9.4°
Drops below altitude 10° 05:45:36 10° 145° (SE) 2,290 6.4 -8.6°
Sets 05:48:23 0° 160° (SSE) 3,212 6.8 -8.1°
